Location: Castelbiague
(43.0361°N, 0.9246°E)
Time: 13:18:50
(UTC+00:00)

COBE Rocket - Pass Details

Date: 17 June 2021
Orbit: 679 x 782 km, 97.1° (Epoch: 30 July)

Event Time Altitude Azimuth Distance (km) Brightness Sun altitude
Exits shadow 23:04:29 53° 139° (SE) 932 4.0 -22.5°
Maximum altitude 23:05:36 72° 75° (ENE) 798 4.0 -22.5°
Drops below altitude 10° 23:10:34 10° 353° (N) 2,259 7.6 -22.7°
Sets 23:12:50 0° 351° (N) 3,170 8.7 -22.8°
